Carlsbad, NM

2:59 PM MST on February 24, 2018 (GMT -0700)
Cavern City

Weather History for KCNM - March, 2013

Change the Weather History Date:

Thursday, March 28, 2013

  Actual Average Record
Temperature  
Mean Temperature 64 °F -  
Max Temperature 84 °F 72 °F 92 °F (1963)
Min Temperature 45 °F 44 °F 25 °F (1952)
Growing Degree Days 14 (Base 50)    
Moisture  
Dew Point 31 °F    
Average Humidity 36    
Maximum Humidity 71    
Minimum Humidity 9    
Precipitation  
Precipitation 0.00 in - - ()
Sea Level Pressure  
Sea Level Pressure 29.92 in    
Wind  
Wind Speed 7 mph (SE)    
Max Wind Speed 14 mph    
Max Gust Speed -    
Visibility 10 miles    
Events      
Averages and records for this station are not official NWS values.
T = Trace of Precipitation, MM = Missing Value Source: NWS Daily Summary

Daily Weather History Graph

Daily Weather History Graph

Search for Another Location

Airport or City:

Trip Planner

Search our weather history database for the weather conditions in past years. The results will help you decide how hot, cold, wet, or windy it might be!

Date:

Astronomy

Mar. 28, 2013 Rise Set
Actual Time 6:50 AM MDT 7:14 PM MDT
Civil Twilight 6:25 AM MDT 7:39 PM MDT
Nautical Twilight 5:56 AM MDT 8:07 PM MDT
Astronomical Twilight 5:27 AM MDT 8:37 PM MDT
Moon 9:00 PM MDT (3/28) 7:26 AM MDT (3/28)
Length of Visible Light 13h 13m
Length of Day
12h 24m
Full, 98% of the Moon is Illuminated
Mar 28
Full
Apr 2
Last Quarter
Apr 10
New
Apr 18
First Quarter
Apr 25
Full

Hourly Weather History & Observations

Time (MDT) Temp. Windchill Dew Point Humidity Pressure Visibility Wind Dir Wind Speed Gust Speed Precip Events Conditions
12:53 AM 57.0 °F - 37.9 °F 49% 29.93 in 10.0 mi South 10.4 mph - N/A   Clear
1:53 AM 54.0 °F - 37.9 °F 55% 29.91 in 10.0 mi South 12.7 mph - N/A   Clear
2:53 AM 51.1 °F - 37.9 °F 61% 29.91 in 10.0 mi SSE 5.8 mph - N/A   Clear
3:53 AM 46.9 °F - 36.0 °F 66% 29.91 in 10.0 mi SSE 5.8 mph - N/A   Clear
4:53 AM 48.0 °F - 37.0 °F 66% 29.92 in 10.0 mi Calm Calm - N/A   Clear
5:53 AM 45.0 °F 42.6 °F 36.0 °F 71% 29.93 in 10.0 mi NNW 4.6 mph - N/A   Clear
6:53 AM 45.0 °F 42.6 °F 35.1 °F 68% 29.96 in 10.0 mi NNE 4.6 mph - N/A   Clear
7:53 AM 46.0 °F - 35.1 °F 66% 29.99 in 10.0 mi Calm Calm - N/A   Clear
8:53 AM 54.0 °F - 43.0 °F 66% 30.01 in 10.0 mi North 3.5 mph - N/A   Clear
9:53 AM 60.1 °F - 41.0 °F 49% 30.00 in 10.0 mi NNW 5.8 mph - N/A   Clear
10:53 AM 68.0 °F - 35.1 °F 30% 29.99 in 10.0 mi North 8.1 mph - N/A   Clear
11:53 AM 73.0 °F - 33.1 °F 23% 29.97 in 10.0 mi Variable 5.8 mph - N/A   Clear
12:53 PM 78.1 °F - 23.0 °F 13% 29.94 in 10.0 mi Variable 5.8 mph - N/A   Clear
1:53 PM 80.1 °F - 21.9 °F 12% 29.91 in 10.0 mi Calm Calm - N/A   Clear
2:53 PM 82.9 °F - 19.0 °F 9% 29.87 in 10.0 mi Calm Calm - N/A   Clear
3:53 PM 84.0 °F - 19.9 °F 9% 29.86 in 10.0 mi SSE 10.4 mph - N/A   Clear
4:53 PM 82.0 °F - 19.0 °F 10% 29.85 in 10.0 mi Calm Calm - N/A   Clear
5:53 PM 81.0 °F - 21.0 °F 11% 29.85 in 10.0 mi SSE 5.8 mph - N/A   Clear
6:53 PM 77.0 °F - 21.0 °F 12% 29.86 in 10.0 mi ESE 8.1 mph - N/A   Clear
7:53 PM 75.0 °F - 21.9 °F 14% 29.88 in 10.0 mi SE 8.1 mph - N/A   Clear
8:53 PM 73.9 °F - 21.9 °F 14% 29.89 in 10.0 mi Variable 3.5 mph - N/A   Clear
9:53 PM 73.0 °F - 32.0 °F 22% 29.90 in 10.0 mi South 9.2 mph - N/A   Clear
10:53 PM 71.1 °F - 36.0 °F 28% 29.91 in 10.0 mi SSE 13.8 mph - N/A   Clear
11:53 PM 66.0 °F - 37.0 °F 34% 29.91 in 10.0 mi South 8.1 mph - N/A   Clear